Retour au catalogue

YAOGAN-30 T

ActifMilitaireVLEO
NORAD 45462·PAYLOAD·🇨🇳 China

Lancé Mar 24, 2020 depuis Xichang Satellite Launch Center

Loading…

Prochains Passages (prochaines 24 heures)

TLE

FraisSource: Space-Track

Époque: Sep 14, 2026, 14:31 UTC

1 45462U 20021C   26257.60504307  .00002194  00000-0  16184-3 0  9992
2 45462  34.9967  23.4004 0000447  68.5716 291.5040 15.03025262353875

Suivez YAOGAN-30 T en temps réel avec AllMySat

Download on the App Store